| time (UTC) | temp F | wind direction | speed MPH | gust MPH | rain 1hr in | rain 24hr in | rain mn in | humidity % | barometer mb |
| 20260510033250 | 75 | 113 | 2.0 | 4.0 | 0.00 | 0.00 | 0.00 | 80 | 1011.0 |
| 20260510032746 | 75 | 163 | 1.0 | 4.0 | 0.00 | 0.00 | 0.00 | 79 | 1011.1 |
| 20260510032242 | 75 | 120 | 2.0 | 6.0 | 0.00 | 0.00 | 0.00 | 79 | 1011.0 |
| 20260510031737 | 75 | 119 | 3.0 | 4.0 | 0.00 | 0.00 | 0.00 | 78 | 1010.9 |
| 20260510031233 | 75 | 130 | 2.0 | 4.0 | 0.00 | 0.00 | 0.00 | 76 | 1010.6 |
| 20260510030733 | 75 | 91 | 1.0 | 4.0 | 0.00 | 0.00 | 0.00 | 76 | 1010.7 |
| 20260510030231 | 75 | 135 | 3.0 | 4.0 | 0.00 | 0.00 | 0.00 | 75 | 1010.9 |
| 20260510025728 | 75 | 115 | 4.0 | 9.0 | 0.00 | 0.00 | 0.00 | 76 | 1010.8 |
| 20260510025225 | 75 | 107 | 1.0 | 2.0 | 0.00 | 0.00 | 0.00 | 79 | 1010.6 |
| 20260510024722 | 75 | 97 | 1.0 | 2.0 | 0.00 | 0.00 | 0.00 | 80 | 1010.8 |
| 20260510024219 | 74 | 101 | 0.0 | 1.0 | 0.00 | 0.00 | 0.00 | 80 | 1010.6 |
| 20260510023714 | 74 | 82 | 1.0 | 1.0 | 0.00 | 0.00 | 0.00 | 82 | 1010.5 |
| 20260510023212 | 74 | 98 | 0.0 | 0.0 | 0.00 | 0.00 | 0.00 | 83 | 1010.5 |
| 20260510022707 | 74 | 92 | 0.0 | 1.0 | 0.00 | 0.00 | 0.00 | 84 | 1010.4 |
| 20260510022202 | 74 | 96 | 0.0 | 0.0 | 0.00 | 0.00 | 0.00 | 84 | 1010.4 |
| 20260510021658 | 74 | 89 | 0.0 | 1.0 | 0.00 | 0.00 | 0.00 | 85 | 1010.0 |
| 20260510021155 | 73 | 83 | 0.0 | 1.0 | 0.00 | 0.00 | 0.00 | 85 | 1010.2 |
| 20260510020649 | 73 | 98 | 0.0 | 0.0 | 0.00 | 0.00 | 0.00 | 85 | 1010.0 |
| 20260510020145 | 73 | 99 | 0.0 | 0.0 | 0.00 | 0.00 | 0.00 | 85 | 1010.0 |
| 20260510015641 | 73 | 99 | 0.0 | 1.0 | 0.00 | 0.00 | 0.00 | 85 | 1009.8 |
| 20260510015138 | 73 | 110 | 0.0 | 0.0 | 0.00 | 0.00 | 0.00 | 85 | 1009.8 |
| 20260510014633 | 73 | 110 | 0.0 | 1.0 | 0.00 | 0.00 | 0.00 | 85 | 1009.6 |
| 20260510014131 | 74 | 97 | 0.0 | 0.0 | 0.00 | 0.00 | 0.00 | 85 | 1009.5 |
| 20260510013631 | 74 | 95 | 0.0 | 0.0 | 0.00 | 0.00 | 0.00 | 84 | 1009.6 |
| 20260510013126 | 74 | 106 | 0.0 | 0.0 | 0.00 | 0.00 | 0.00 | 84 | 1009.5 |
| 20260510012626 | 74 | 75 | 0.0 | 1.0 | 0.00 | 0.00 | 0.00 | 83 | 1009.4 |
| 20260510012123 | 75 | 68 | 1.0 | 1.0 | 0.00 | 0.00 | 0.00 | 83 | 1009.3 |
| 20260510011622 | 75 | 79 | 0.0 | 1.0 | 0.00 | 0.00 | 0.00 | 83 | 1009.2 |
| 20260510011118 | 75 | 99 | 0.0 | 1.0 | 0.00 | 0.00 | 0.00 | 82 | 1009.4 |
| 20260510010615 | 75 | 61 | 1.0 | 1.0 | 0.00 | 0.00 | 0.00 | 82 | 1009.1 |
| 20260510010113 | 76 | 82 | 0.0 | 1.0 | 0.00 | 0.00 | 0.00 | 82 | 1009.2 |
| 20260510005608 | 76 | 106 | 0.0 | 1.0 | 0.00 | 0.00 | 0.00 | 80 | 1009.1 |
| 20260510005105 | 76 | 98 | 0.0 | 1.0 | 0.00 | 0.00 | 0.00 | 78 | 1009.3 |
| 20260510004603 | 76 | 108 | 0.0 | 0.0 | 0.00 | 0.00 | 0.00 | 77 | 1009.2 |
| 20260510004101 | 77 | 105 | 1.0 | 1.0 | 0.00 | 0.00 | 0.00 | 77 | 1009.1 |
| 20260510003557 | 77 | 51 | 1.0 | 2.0 | 0.00 | 0.00 | 0.00 | 76 | 1009.4 |
| 20260510003053 | 77 | 147 | 0.0 | 0.0 | 0.00 | 0.00 | 0.00 | 76 | 1009.2 |
| 20260510002548 | 77 | 147 | 0.0 | 1.0 | 0.00 | 0.00 | 0.00 | 77 | 1009.2 |
| 20260510002046 | 77 | 213 | 0.0 | 1.0 | 0.00 | 0.00 | 0.00 | 76 | 1009.4 |
| 20260510001543 | 78 | 210 | 1.0 | 2.0 | 0.00 | 0.00 | 0.00 | 77 | 1009.3 |
| 20260510001041 | 78 | 146 | 0.0 | 1.0 | 0.00 | 0.00 | 0.00 | 77 | 1009.4 |
| 20260510000536 | 78 | 116 | 0.0 | 0.0 | 0.00 | 0.00 | 0.00 | 75 | 1009.4 |
| 20260510000033 | 79 | 112 | 0.0 | 0.0 | 0.00 | 0.00 | 0.00 | 73 | 1009.5 |
| 20260509235530 | 79 | 66 | 1.0 | 1.0 | 0.00 | 0.00 | 0.00 | 70 | 1009.5 |
| 20260509235027 | 79 | 297 | 1.0 | 2.0 | 0.00 | 0.00 | 0.00 | 66 | 1009.6 |
| 20260509234523 | 79 | 120 | 0.0 | 1.0 | 0.00 | 0.00 | 0.00 | 64 | 1009.7 |
| 20260509234021 | 80 | 72 | 1.0 | 3.0 | 0.00 | 0.00 | 0.00 | 63 | 1009.2 |
| 20260509233518 | 80 | 18 | 1.0 | 2.0 | 0.00 | 0.00 | 0.00 | 62 | 1009.3 |
| 20260509233015 | 80 | 47 | 3.0 | 4.0 | 0.00 | 0.00 | 0.00 | 63 | 1008.7 |
| 20260509232512 | 80 | 80 | 2.0 | 2.0 | 0.00 | 0.00 | 0.00 | 62 | 1008.8 |
| 20260509232008 | 80 | 56 | 2.0 | 3.0 | 0.00 | 0.00 | 0.00 | 60 | 1009.2 |
| 20260509231505 | 81 | 56 | 3.0 | 4.0 | 0.00 | 0.00 | 0.00 | 60 | 1009.3 |
| 20260509231002 | 82 | 53 | 4.0 | 7.0 | 0.00 | 0.00 | 0.00 | 59 | 1009.2 |
| 20260509230459 | 84 | 38 | 7.0 | 9.0 | 0.00 | 0.00 | 0.00 | 56 | 1009.2 |
| 20260509225955 | 87 | 59 | 6.0 | 10.0 | 0.00 | 0.00 | 0.00 | 51 | 1009.2 |
| 20260509225452 | 89 | 68 | 4.0 | 6.0 | 0.00 | 0.00 | 0.00 | 53 | 1009.1 |
| 20260509224947 | 90 | 155 | 2.0 | 4.0 | 0.00 | 0.00 | 0.00 | 51 | 1008.6 |
| 20260509224443 | 89 | 142 | 0.0 | 2.0 | 0.00 | 0.00 | 0.00 | 53 | 1008.7 |
| 20260509223940 | 90 | 116 | 2.0 | 3.0 | 0.00 | 0.00 | 0.00 | 51 | 1008.6 |
| 20260509223437 | 92 | 134 | 1.0 | 2.0 | 0.00 | 0.00 | 0.00 | 49 | 1008.5 |
| 20260509222934 | 92 | 121 | 0.0 | 1.0 | 0.00 | 0.00 | 0.00 | 47 | 1008.8 |
| 20260509222429 | 92 | 129 | 0.0 | 1.0 | 0.00 | 0.00 | 0.00 | 47 | 1008.3 |
| 20260509221926 | 92 | 163 | 0.0 | 2.0 | 0.00 | 0.00 | 0.00 | 48 | 1008.1 |
| 20260509221422 | 92 | 184 | 0.0 | 2.0 | 0.00 | 0.00 | 0.00 | 49 | 1008.3 |
| 20260509220918 | 91 | 194 | 1.0 | 1.0 | 0.00 | 0.00 | 0.00 | 52 | 1008.2 |
| 20260509220414 | 91 | 179 | 2.0 | 2.0 | 0.00 | 0.00 | 0.00 | 50 | 1008.1 |
| 20260509215910 | 92 | 127 | 0.0 | 4.0 | 0.00 | 0.00 | 0.00 | 52 | 1008.1 |
| 20260509215406 | 94 | 149 | 1.0 | 3.0 | 0.00 | 0.00 | 0.00 | 48 | 1008.2 |
| 20260509214904 | 95 | 218 | 0.0 | 1.0 | 0.00 | 0.00 | 0.00 | 46 | 1008.3 |
| 20260509214401 | 93 | 129 | 0.0 | 0.0 | 0.00 | 0.00 | 0.00 | 44 | 1008.6 |
| 20260509213858 | 93 | 89 | 1.0 | 1.0 | 0.00 | 0.00 | 0.00 | 44 | 1008.5 |
| 20260509213353 | 94 | 227 | 2.0 | 3.0 | 0.00 | 0.00 | 0.00 | 43 | 1008.5 |
| 20260509212851 | 93 | 228 | 1.0 | 1.0 | 0.00 | 0.00 | 0.00 | 46 | 1008.4 |
| 20260509212348 | 92 | 191 | 0.0 | 1.0 | 0.00 | 0.00 | 0.00 | 46 | 1008.6 |
| 20260509211844 | 92 | 211 | 1.0 | 2.0 | 0.00 | 0.00 | 0.00 | 48 | 1008.7 |
| 20260509211340 | 93 | 109 | 3.0 | 4.0 | 0.00 | 0.00 | 0.00 | 46 | 1008.7 |
| 20260509210837 | 93 | 209 | 2.0 | 3.0 | 0.00 | 0.00 | 0.00 | 47 | 1008.7 |
| 20260509210335 | 93 | 110 | 1.0 | 3.0 | 0.00 | 0.00 | 0.00 | 46 | 1008.8 |
| 20260509205834 | 93 | 180 | 2.0 | 2.0 | 0.00 | 0.00 | 0.00 | 46 | 1008.8 |
| 20260509205329 | 92 | 233 | 1.0 | 3.0 | 0.00 | 0.00 | 0.00 | 49 | 1008.9 |
| 20260509204826 | 93 | 97 | 2.0 | 4.0 | 0.00 | 0.00 | 0.00 | 50 | 1009.0 |
| 20260509204322 | 93 | 122 | 0.0 | 2.0 | 0.00 | 0.00 | 0.00 | 50 | 1009.2 |
| 20260509203818 | 93 | 222 | 1.0 | 2.0 | 0.00 | 0.00 | 0.00 | 49 | 1009.2 |
| 20260509203315 | 93 | 194 | 1.0 | 1.0 | 0.00 | 0.00 | 0.00 | 51 | 1009.2 |
| 20260509202812 | 93 | 91 | 0.0 | 2.0 | 0.00 | 0.00 | 0.00 | 52 | 1009.4 |
| 20260509202308 | 93 | 142 | 0.0 | 3.0 | 0.00 | 0.00 | 0.00 | 52 | 1009.4 |
| 20260509201807 | 93 | 186 | 1.0 | 2.0 | 0.00 | 0.00 | 0.00 | 49 | 1009.6 |
| 20260509201304 | 92 | 181 | 2.0 | 2.0 | 0.00 | 0.00 | 0.00 | 49 | 1009.5 |
| 20260509200800 | 92 | 354 | 1.0 | 2.0 | 0.00 | 0.00 | 0.00 | 51 | 1009.5 |
| 20260509200255 | 92 | 286 | 1.0 | 1.0 | 0.00 | 0.00 | 0.00 | 51 | 1009.5 |
| 20260509195752 | 92 | 212 | 1.0 | 1.0 | 0.00 | 0.00 | 0.00 | 54 | 1009.5 |
| 20260509195248 | 92 | 165 | 1.0 | 4.0 | 0.00 | 0.00 | 0.00 | 51 | 1009.5 |
| 20260509194748 | 92 | 254 | 1.0 | 1.0 | 0.00 | 0.00 | 0.00 | 50 | 1009.6 |
| 20260509194244 | 92 | 352 | 1.0 | 2.0 | 0.00 | 0.00 | 0.00 | 49 | 1009.5 |
| 20260509193741 | 91 | 135 | 0.0 | 2.0 | 0.00 | 0.00 | 0.00 | 50 | 1009.7 |
| 20260509193241 | 92 | 216 | 1.0 | 2.0 | 0.00 | 0.00 | 0.00 | 51 | 1009.7 |
| 20260509192737 | 91 | 199 | 1.0 | 2.0 | 0.00 | 0.00 | 0.00 | 54 | 1009.7 |
| 20260509192232 | 91 | 204 | 0.0 | 2.0 | 0.00 | 0.00 | 0.00 | 57 | 1009.6 |
| 20260509191728 | 91 | 168 | 0.0 | 2.0 | 0.00 | 0.00 | 0.00 | 56 | 1009.8 |
| 20260509191225 | 91 | 212 | 1.0 | 3.0 | 0.00 | 0.00 | 0.00 | 56 | 1009.8 |
| 20260509190720 | 91 | 61 | 1.0 | 2.0 | 0.00 | 0.00 | 0.00 | 56 | 1009.9 |
| 20260509190218 | 90 | 126 | 0.0 | 0.0 | 0.00 | 0.00 | 0.00 | 61 | 1009.9 |
| 20260509185715 | 89 | 131 | 0.0 | 3.0 | 0.00 | 0.00 | 0.00 | 58 | 1010.1 |
| 20260509185212 | 89 | 285 | 1.0 | 2.0 | 0.00 | 0.00 | 0.00 | 58 | 1010.3 |
| 20260509184709 | 89 | 263 | 1.0 | 1.0 | 0.00 | 0.00 | 0.00 | 63 | 1010.3 |
| 20260509184206 | 89 | 186 | 1.0 | 1.0 | 0.00 | 0.00 | 0.00 | 63 | 1010.3 |
| 20260509183702 | 88 | 221 | 1.0 | 3.0 | 0.00 | 0.00 | 0.00 | 63 | 1010.5 |
| 20260509183158 | 89 | 209 | 4.0 | 6.0 | 0.00 | 0.00 | 0.00 | 62 | 1010.3 |
| 20260509182653 | 88 | 221 | 2.0 | 2.0 | 0.00 | 0.00 | 0.00 | 63 | 1010.5 |
| 20260509182151 | 88 | 182 | 1.0 | 2.0 | 0.00 | 0.00 | 0.00 | 63 | 1010.8 |
| 20260509181649 | 89 | 228 | 2.0 | 2.0 | 0.00 | 0.00 | 0.00 | 64 | 1010.9 |
| 20260509181146 | 88 | 7 | 1.0 | 2.0 | 0.00 | 0.00 | 0.00 | 63 | 1010.9 |
| 20260509180642 | 87 | 141 | 0.0 | 2.0 | 0.00 | 0.00 | 0.00 | 64 | 1011.1 |
| 20260509180139 | 88 | 182 | 2.0 | 4.0 | 0.00 | 0.00 | 0.00 | 66 | 1011.2 |
| 20260509175635 | 88 | 120 | 1.0 | 3.0 | 0.00 | 0.00 | 0.00 | 64 | 1011.0 |
| 20260509175132 | 87 | 99 | 1.0 | 1.0 | 0.00 | 0.00 | 0.00 | 64 | 1011.3 |
| 20260509174628 | 86 | 233 | 1.0 | 3.0 | 0.00 | 0.00 | 0.00 | 67 | 1011.1 |
| 20260509174123 | 87 | 70 | 1.0 | 3.0 | 0.00 | 0.00 | 0.00 | 67 | 1011.2 |
| 20260509173619 | 87 | 105 | 0.0 | 2.0 | 0.00 | 0.00 | 0.00 | 66 | 1011.3 |
| 20260509173115 | 87 | 189 | 0.0 | 2.0 | 0.00 | 0.00 | 0.00 | 68 | 1011.4 |
| 20260509172612 | 87 | 222 | 2.0 | 2.0 | 0.00 | 0.00 | 0.00 | 69 | 1011.6 |
| 20260509172108 | 86 | 165 | 0.0 | 1.0 | 0.00 | 0.00 | 0.00 | 70 | 1011.3 |
| 20260509171604 | 85 | 194 | 0.0 | 1.0 | 0.00 | 0.00 | 0.00 | 70 | 1011.4 |
| 20260509171100 | 84 | 171 | 1.0 | 2.0 | 0.00 | 0.00 | 0.00 | 71 | 1011.5 |
| 20260509170556 | 84 | 124 | 0.0 | 0.0 | 0.00 | 0.00 | 0.00 | 75 | 1011.6 |
| 20260509170052 | 84 | 146 | 0.0 | 2.0 | 0.00 | 0.00 | 0.00 | 74 | 1011.7 |
| 20260509165551 | 84 | 152 | 0.0 | 1.0 | 0.00 | 0.00 | 0.00 | 72 | 1011.8 |
| 20260509165046 | 84 | 111 | 0.0 | 0.0 | 0.00 | 0.00 | 0.00 | 72 | 1011.6 |
| 20260509164543 | 84 | 62 | 1.0 | 1.0 | 0.00 | 0.00 | 0.00 | 70 | 1011.5 |
| 20260509164043 | 84 | 172 | 0.0 | 1.0 | 0.00 | 0.00 | 0.00 | 72 | 1011.5 |
| 20260509163542 | 85 | 174 | 1.0 | 1.0 | 0.00 | 0.00 | 0.00 | 71 | 1011.5 |
| 20260509163037 | 85 | 166 | 0.0 | 1.0 | 0.00 | 0.00 | 0.00 | 72 | 1011.4 |
| 20260509162535 | 84 | 149 | 0.0 | 0.0 | 0.00 | 0.00 | 0.00 | 74 | 1011.5 |
| 20260509162030 | 84 | 145 | 0.0 | 0.0 | 0.00 | 0.00 | 0.00 | 74 | 1011.4 |
| 20260509161528 | 84 | 121 | 0.0 | 0.0 | 0.00 | 0.00 | 0.00 | 76 | 1011.3 |
| 20260509161028 | 83 | 152 | 0.0 | 0.0 | 0.00 | 0.00 | 0.00 | 77 | 1011.4 |
| 20260509160524 | 83 | 83 | 1.0 | 2.0 | 0.00 | 0.00 | 0.00 | 77 | 1011.2 |
| 20260509160020 | 82 | 56 | 1.0 | 1.0 | 0.00 | 0.00 | 0.00 | 77 | 1011.2 |
| 20260509155515 | 82 | 106 | 0.0 | 1.0 | 0.00 | 0.00 | 0.00 | 79 | 1011.1 |
| 20260509155012 | 81 | 166 | 0.0 | 1.0 | 0.00 | 0.00 | 0.00 | 80 | 1011.3 |
| 20260509154508 | 81 | 115 | 0.0 | 1.0 | 0.00 | 0.00 | 0.00 | 80 | 1011.2 |
| 20260509154006 | 81 | 155 | 0.0 | 1.0 | 0.00 | 0.00 | 0.00 | 80 | 1011.3 |
| 20260509153503 | 81 | 167 | 0.0 | 1.0 | 0.00 | 0.00 | 0.00 | 79 | 1011.5 |
| 20260509152959 | 82 | 137 | 0.0 | 1.0 | 0.00 | 0.00 | 0.00 | 79 | 1011.3 |
| 20260509152455 | 82 | 210 | 1.0 | 1.0 | 0.00 | 0.00 | 0.00 | 78 | 1011.2 |
| 20260509151952 | 81 | 139 | 0.0 | 1.0 | 0.00 | 0.00 | 0.00 | 80 | 1011.3 |
| 20260509151448 | 81 | 207 | 0.0 | 2.0 | 0.00 | 0.00 | 0.00 | 79 | 1011.4 |
| 20260509150947 | 82 | 210 | 1.0 | 2.0 | 0.00 | 0.00 | 0.00 | 81 | 1011.4 |
| 20260509150444 | 81 | 160 | 0.0 | 1.0 | 0.00 | 0.00 | 0.00 | 82 | 1011.5 |
| 20260509145942 | 81 | 82 | 1.0 | 1.0 | 0.00 | 0.00 | 0.00 | 83 | 1011.2 |
| 20260509145442 | 80 | 95 | 0.0 | 1.0 | 0.00 | 0.00 | 0.00 | 84 | 1011.2 |
| 20260509144938 | 80 | 263 | 1.0 | 2.0 | 0.00 | 0.00 | 0.00 | 86 | 1011.1 |
| 20260509144435 | 79 | 161 | 0.0 | 1.0 | 0.00 | 0.00 | 0.00 | 88 | 1011.1 |
| 20260509143932 | 79 | 184 | 0.0 | 2.0 | 0.00 | 0.00 | 0.00 | 89 | 1011.1 |
| 20260509143430 | 78 | 177 | 0.0 | 1.0 | 0.00 | 0.00 | 0.00 | 92 | 1011.0 |
| 20260509142925 | 77 | 166 | 0.0 | 2.0 | 0.00 | 0.00 | 0.00 | 93 | 1010.8 |
| 20260509142422 | 77 | 172 | 0.0 | 1.0 | 0.00 | 0.00 | 0.00 | 94 | 1010.8 |
| 20260509141918 | 76 | 121 | 1.0 | 2.0 | 0.00 | 0.00 | 0.00 | 95 | 1010.6 |
| 20260509141415 | 75 | 95 | 1.0 | 3.0 | 0.00 | 0.00 | 0.00 | 95 | 1010.3 |
| 20260509140912 | 75 | 124 | 2.0 | 4.0 | 0.00 | 0.00 | 0.00 | 96 | 1010.5 |
| 20260509140408 | 75 | 171 | 3.0 | 4.0 | 0.00 | 0.00 | 0.00 | 97 | 1010.2 |
| 20260509135907 | 75 | 117 | 3.0 | 3.0 | 0.00 | 0.00 | 0.00 | 97 | 1010.1 |
| 20260509135404 | 75 | 105 | 0.0 | 0.0 | 0.00 | 0.00 | 0.00 | 97 | 1010.5 |
| 20260509134901 | 75 | 93 | 0.0 | 1.0 | 0.00 | 0.00 | 0.00 | 98 | 1010.7 |
| 20260509134358 | 75 | 121 | 0.0 | 2.0 | 0.00 | 0.00 | 0.00 | 97 | 1010.4 |
| 20260509133855 | 75 | 110 | 1.0 | 3.0 | 0.00 | 0.00 | 0.00 | 97 | 1010.0 |
| 20260509133352 | 75 | 168 | 1.0 | 3.0 | 0.00 | 0.00 | 0.00 | 98 | 1010.7 |
| 20260509132851 | 75 | 156 | 0.0 | 2.0 | 0.00 | 0.00 | 0.00 | 98 | 1010.9 |
| 20260509132348 | 74 | 180 | 1.0 | 2.0 | 0.00 | 0.00 | 0.00 | 98 | 1011.1 |
| 20260509131845 | 74 | 135 | 1.0 | 2.0 | 0.00 | 0.00 | 0.00 | 98 | 1011.5 |
| 20260509131342 | 74 | 181 | 1.0 | 2.0 | 0.00 | 0.00 | 0.00 | 98 | 1011.3 |
| 20260509130838 | 74 | 133 | 2.0 | 6.0 | 0.00 | 0.00 | 0.00 | 98 | 1011.2 |
| 20260509130334 | 74 | 147 | 2.0 | 3.0 | 0.00 | 0.00 | 0.00 | 98 | 1011.2 |
| 20260509125831 | 74 | 133 | 1.0 | 3.0 | 0.00 | 0.00 | 0.00 | 98 | 1011.5 |
| 20260509125327 | 74 | 118 | 1.0 | 1.0 | 0.00 | 0.00 | 0.00 | 98 | 1011.5 |
| 20260509124824 | 74 | 116 | 0.0 | 0.0 | 0.00 | 0.00 | 0.00 | 98 | 1011.6 |
| 20260509124320 | 74 | 113 | 0.0 | 1.0 | 0.00 | 0.00 | 0.00 | 98 | 1011.7 |
| 20260509123819 | 74 | 112 | 0.0 | 1.0 | 0.00 | 0.00 | 0.00 | 98 | 1011.7 |
| 20260509123316 | 74 | 114 | 0.0 | 0.0 | 0.00 | 0.00 | 0.00 | 98 | 1011.7 |
| 20260509122811 | 74 | 114 | 0.0 | 1.0 | 0.00 | 0.00 | 0.00 | 98 | 1011.7 |
| 20260509122308 | 74 | 81 | 0.0 | 1.0 | 0.00 | 0.00 | 0.00 | 98 | 1011.6 |
| 20260509121805 | 74 | 80 | 0.0 | 0.0 | 0.00 | 0.00 | 0.00 | 98 | 1011.7 |
| 20260509121302 | 74 | 80 | 0.0 | 0.0 | 0.00 | 0.00 | 0.00 | 98 | 1011.5 |
| 20260509120801 | 74 | 80 | 0.0 | 0.0 | 0.00 | 0.00 | 0.00 | 98 | 1011.5 |
| 20260509120258 | 73 | 79 | 0.0 | 0.0 | 0.00 | 0.00 | 0.00 | 98 | 1011.4 |
| 20260509115756 | 73 | 79 | 0.0 | 0.0 | 0.00 | 0.00 | 0.00 | 98 | 1011.4 |
| 20260509115253 | 73 | 79 | 0.0 | 0.0 | 0.00 | 0.00 | 0.00 | 98 | 1011.3 |
| 20260509114751 | 73 | 78 | 0.0 | 2.0 | 0.00 | 0.00 | 0.00 | 98 | 1011.0 |
| 20260509114249 | 73 | 113 | 0.0 | 1.0 | 0.00 | 0.00 | 0.00 | 98 | 1010.8 |
| 20260509113748 | 73 | 113 | 1.0 | 1.0 | 0.00 | 0.00 | 0.00 | 98 | 1010.8 |
| 20260509113244 | 73 | 105 | 2.0 | 3.0 | 0.00 | 0.00 | 0.00 | 98 | 1010.5 |
| 20260509112741 | 74 | 120 | 2.0 | 3.0 | 0.00 | 0.00 | 0.00 | 98 | 1010.8 |
| 20260509112238 | 74 | 136 | 1.0 | 1.0 | 0.00 | 0.00 | 0.00 | 98 | 1011.0 |
| 20260509111736 | 74 | 125 | 1.0 | 1.0 | 0.00 | 0.00 | 0.00 | 98 | 1011.2 |
| 20260509111232 | 74 | 124 | 0.0 | 1.0 | 0.00 | 0.00 | 0.00 | 98 | 1011.1 |
| 20260509110730 | 74 | 125 | 0.0 | 1.0 | 0.00 | 0.00 | 0.00 | 98 | 1011.0 |
| 20260509110226 | 74 | 118 | 0.0 | 2.0 | 0.00 | 0.00 | 0.00 | 98 | 1010.9 |
| 20260509105724 | 74 | 95 | 0.0 | 1.0 | 0.00 | 0.00 | 0.00 | 98 | 1010.8 |
| 20260509105222 | 74 | 95 | 0.0 | 0.0 | 0.00 | 0.00 | 0.00 | 98 | 1010.9 |
| 20260509104718 | 74 | 95 | 0.0 | 0.0 | 0.00 | 0.00 | 0.00 | 98 | 1011.2 |
| 20260509104215 | 74 | 95 | 0.0 | 0.0 | 0.00 | 0.00 | 0.00 | 98 | 1010.8 |
| 20260509103714 | 74 | 95 | 0.0 | 0.0 | 0.00 | 0.00 | 0.00 | 98 | 1011.0 |
| 20260509103210 | 74 | 95 | 0.0 | 0.0 | 0.00 | 0.00 | 0.00 | 98 | 1010.7 |
| 20260509102709 | 74 | 95 | 0.0 | 0.0 | 0.00 | 0.00 | 0.00 | 98 | 1010.6 |
| 20260509102205 | 74 | 95 | 0.0 | 1.0 | 0.00 | 0.00 | 0.00 | 98 | 1010.7 |
| 20260509101701 | 74 | 95 | 0.0 | 0.0 | 0.00 | 0.00 | 0.00 | 98 | 1010.6 |
| 20260509101158 | 74 | 95 | 0.0 | 0.0 | 0.00 | 0.00 | 0.00 | 98 | 1010.7 |
| 20260509100655 | 73 | 95 | 0.0 | 0.0 | 0.00 | 0.00 | 0.00 | 98 | 1010.5 |
| 20260509100152 | 73 | 95 | 0.0 | 1.0 | 0.00 | 0.00 | 0.00 | 98 | 1010.2 |
| 20260509095649 | 73 | 96 | 0.0 | 1.0 | 0.00 | 0.00 | 0.00 | 98 | 1010.4 |
| 20260509095147 | 73 | 96 | 0.0 | 1.0 | 0.00 | 0.00 | 0.00 | 98 | 1010.4 |
| 20260509094643 | 73 | 95 | 0.0 | 1.0 | 0.00 | 0.00 | 0.00 | 98 | 1010.6 |
| 20260509094140 | 73 | 95 | 0.0 | 1.0 | 0.00 | 0.00 | 0.00 | 98 | 1010.5 |
| 20260509093638 | 73 | 95 | 0.0 | 1.0 | 0.00 | 0.00 | 0.00 | 98 | 1010.6 |
| 20260509093135 | 73 | 95 | 0.0 | 0.0 | 0.00 | 0.00 | 0.00 | 98 | 1010.7 |
| 20260509092633 | 73 | 95 | 0.0 | 1.0 | 0.00 | 0.00 | 0.00 | 98 | 1010.5 |
| 20260509092132 | 73 | 110 | 0.0 | 1.0 | 0.00 | 0.00 | 0.00 | 98 | 1010.1 |
| 20260509091629 | 73 | 110 | 0.0 | 0.0 | 0.00 | 0.00 | 0.00 | 98 | 1010.2 |
| 20260509091125 | 73 | 110 | 0.0 | 2.0 | 0.00 | 0.00 | 0.00 | 98 | 1010.3 |
| 20260509090623 | 73 | 122 | 2.0 | 2.0 | 0.00 | 0.00 | 0.00 | 98 | 1010.2 |
| 20260509090120 | 73 | 107 | 0.0 | 1.0 | 0.00 | 0.00 | 0.00 | 98 | 1010.1 |
| 20260509085617 | 73 | 106 | 1.0 | 2.0 | 0.00 | 0.00 | 0.00 | 98 | 1010.0 |
| 20260509085113 | 73 | 130 | 2.0 | 3.0 | 0.00 | 0.00 | 0.00 | 98 | 1010.3 |
| 20260509084611 | 73 | 128 | 3.0 | 3.0 | 0.00 | 0.00 | 0.00 | 98 | 1010.2 |
| 20260509084107 | 73 | 116 | 0.0 | 1.0 | 0.00 | 0.00 | 0.00 | 98 | 1010.5 |
| 20260509083605 | 73 | 128 | 1.0 | 2.0 | 0.00 | 0.00 | 0.00 | 98 | 1010.2 |
| 20260509083101 | 73 | 117 | 3.0 | 7.0 | 0.00 | 0.00 | 0.00 | 98 | 1010.3 |
| 20260509082559 | 73 | 114 | 2.0 | 4.0 | 0.00 | 0.00 | 0.00 | 98 | 1010.2 |
| 20260509082055 | 73 | 141 | 1.0 | 1.0 | 0.00 | 0.00 | 0.00 | 98 | 1010.5 |
| 20260509081553 | 73 | 135 | 2.0 | 3.0 | 0.00 | 0.00 | 0.00 | 98 | 1010.5 |
| 20260509081049 | 73 | 143 | 0.0 | 2.0 | 0.00 | 0.00 | 0.00 | 97 | 1010.5 |
| 20260509080547 | 73 | 141 | 2.0 | 3.0 | 0.00 | 0.00 | 0.00 | 97 | 1010.4 |
| 20260509080045 | 73 | 202 | 2.0 | 3.0 | 0.00 | 0.00 | 0.00 | 97 | 1010.4 |
| 20260509075542 | 73 | 132 | 0.0 | 2.0 | 0.00 | 0.00 | 0.00 | 97 | 1010.0 |
| 20260509075040 | 73 | 132 | 1.0 | 2.0 | 0.00 | 0.00 | 0.00 | 97 | 1010.5 |
| 20260509074537 | 73 | 168 | 2.0 | 4.0 | 0.00 | 0.00 | 0.00 | 97 | 1010.7 |
| 20260509074034 | 73 | 149 | 0.0 | 1.0 | 0.00 | 0.00 | 0.00 | 97 | 1010.7 |
| 20260509073530 | 73 | 140 | 0.0 | 2.0 | 0.00 | 0.00 | 0.00 | 97 | 1010.4 |
| 20260509073027 | 73 | 138 | 2.0 | 3.0 | 0.00 | 0.00 | 0.00 | 97 | 1010.3 |
| 20260509072523 | 73 | 156 | 2.0 | 6.0 | 0.00 | 0.00 | 0.00 | 97 | 1010.5 |
| 20260509072020 | 73 | 144 | 4.0 | 4.0 | 0.00 | 0.00 | 0.00 | 97 | 1010.3 |
| 20260509071517 | 73 | 115 | 2.0 | 6.0 | 0.00 | 0.00 | 0.00 | 97 | 1010.6 |
| 20260509071014 | 73 | 120 | 0.0 | 3.0 | 0.00 | 0.00 | 0.00 | 97 | 1010.5 |
| 20260509070512 | 73 | 111 | 2.0 | 6.0 | 0.00 | 0.00 | 0.00 | 97 | 1010.4 |
| 20260509070008 | 73 | 134 | 2.0 | 6.0 | 0.00 | 0.00 | 0.00 | 97 | 1010.3 |
| 20260509065503 | 73 | 155 | 2.0 | 3.0 | 0.00 | 0.00 | 0.00 | 97 | 1010.3 |
| 20260509064959 | 73 | 124 | 4.0 | 4.0 | 0.00 | 0.00 | 0.00 | 97 | 1010.1 |
| 20260509064457 | 73 | 149 | 3.0 | 6.0 | 0.00 | 0.00 | 0.00 | 96 | 1010.2 |
| 20260509063955 | 73 | 134 | 1.0 | 6.0 | 0.00 | 0.00 | 0.00 | 96 | 1010.2 |
| 20260509063450 | 73 | 147 | 3.0 | 6.0 | 0.00 | 0.00 | 0.00 | 96 | 1010.2 |
| 20260509062948 | 73 | 135 | 3.0 | 6.0 | 0.00 | 0.00 | 0.00 | 96 | 1010.4 |
| 20260509062445 | 73 | 174 | 2.0 | 3.0 | 0.00 | 0.00 | 0.00 | 96 | 1010.5 |
| 20260509061943 | 73 | 193 | 3.0 | 6.0 | 0.00 | 0.00 | 0.00 | 96 | 1010.6 |
| 20260509061439 | 73 | 154 | 4.0 | 7.0 | 0.00 | 0.00 | 0.00 | 96 | 1010.4 |
| 20260509060937 | 73 | 162 | 2.0 | 3.0 | 0.00 | 0.00 | 0.00 | 96 | 1010.7 |
| 20260509060434 | 73 | 125 | 3.0 | 4.0 | 0.00 | 0.00 | 0.00 | 96 | 1010.8 |
| 20260509055929 | 73 | 146 | 3.0 | 6.0 | 0.00 | 0.00 | 0.00 | 96 | 1010.8 |
| 20260509055425 | 73 | 137 | 3.0 | 4.0 | 0.00 | 0.00 | 0.00 | 96 | 1010.9 |
| 20260509054921 | 73 | 111 | 2.0 | 4.0 | 0.00 | 0.00 | 0.00 | 95 | 1011.1 |
| 20260509054418 | 73 | 155 | 2.0 | 3.0 | 0.00 | 0.00 | 0.00 | 95 | 1011.1 |
| 20260509053917 | 73 | 129 | 3.0 | 4.0 | 0.00 | 0.00 | 0.00 | 95 | 1011.1 |
| 20260509053414 | 73 | 147 | 2.0 | 3.0 | 0.00 | 0.00 | 0.00 | 95 | 1011.1 |
| 20260509052912 | 73 | 122 | 1.0 | 6.0 | 0.00 | 0.00 | 0.00 | 95 | 1011.3 |
| 20260509052409 | 73 | 178 | 1.0 | 3.0 | 0.00 | 0.00 | 0.00 | 95 | 1011.2 |
| 20260509051907 | 73 | 143 | 3.0 | 4.0 | 0.00 | 0.00 | 0.00 | 95 | 1011.3 |
| 20260509051405 | 73 | 148 | 2.0 | 4.0 | 0.00 | 0.00 | 0.00 | 95 | 1011.2 |
| 20260509050901 | 73 | 134 | 2.0 | 4.0 | 0.00 | 0.00 | 0.00 | 95 | 1011.0 |
| 20260509050358 | 73 | 134 | 2.0 | 6.0 | 0.00 | 0.00 | 0.00 | 95 | 1011.0 |
| 20260509045855 | 73 | 191 | 3.0 | 6.0 | 0.00 | 0.00 | 0.00 | 95 | 1011.1 |
| 20260509045352 | 73 | 115 | 6.0 | 7.0 | 0.00 | 0.00 | 0.00 | 95 | 1011.0 |
| 20260509044849 | 73 | 121 | 3.0 | 6.0 | 0.00 | 0.00 | 0.00 | 95 | 1011.0 |
| 20260509044347 | 73 | 100 | 3.0 | 6.0 | 0.00 | 0.00 | 0.00 | 95 | 1010.7 |
| 20260509043843 | 73 | 93 | 3.0 | 4.0 | 0.00 | 0.00 | 0.00 | 94 | 1010.8 |
| 20260509043339 | 73 | 115 | 3.0 | 4.0 | 0.00 | 0.00 | 0.00 | 94 | 1010.8 |
| 20260509042835 | 73 | 120 | 2.0 | 3.0 | 0.00 | 0.00 | 0.00 | 94 | 1010.8 |
| 20260509042331 | 73 | 113 | 3.0 | 3.0 | 0.00 | 0.00 | 0.00 | 94 | 1010.7 |
| 20260509041828 | 73 | 124 | 3.0 | 6.0 | 0.00 | 0.00 | 0.00 | 94 | 1010.9 |
| 20260509041325 | 73 | 121 | 2.0 | 7.0 | 0.00 | 0.00 | 0.00 | 94 | 1010.9 |
| 20260509040823 | 73 | 153 | 4.0 | 4.0 | 0.00 | 0.00 | 0.00 | 94 | 1010.7 |
| 20260509040321 | 73 | 127 | 4.0 | 6.0 | 0.00 | 0.00 | 0.00 | 94 | 1010.6 |
| 20260509035817 | 73 | 127 | 2.0 | 6.0 | 0.00 | 0.00 | 0.00 | 94 | 1010.5 |
| 20260509035315 | 73 | 112 | 4.0 | 7.0 | 0.00 | 0.00 | 0.00 | 94 | 1010.8 |
| 20260509034810 | 73 | 103 | 3.0 | 4.0 | 0.00 | 0.00 | 0.00 | 94 | 1010.6 |
| 20260509034309 | 73 | 101 | 2.0 | 6.0 | 0.00 | 0.00 | 0.00 | 94 | 1010.7 |
| 20260509033805 | 73 | 140 | 2.0 | 6.0 | 0.00 | 0.00 | 0.00 | 94 | 1010.7 |